Other Public Products
Issued by NWS Grand Forks, ND

Home | Current Version | Previous Version | Text Only | Print | Product List | Glossary Off
Versions: 1 2 3 4 5 6 7 8 9 10 11 12 13 14 15 16 17 18 19 20 21 22 23 24 25 26 27 28 29 30 31 32 33 34 35 36 37 38 39 40 41 42 43 44 45 46 47 48 49 50

000
FPUS83 KFGF 251810
OPUFGF
PRAIRIE TO PINES WEATHER ROUNDUP
NATIONAL WEATHER SERVICE EASTERN NORTH DAKOTA/GRAND FORKS ND
100 PM CDT SAT MAR 25 2017

 **SATELLITE DATA USED TO AUGMENT SKY COVER AT AUTOMATED STATIONS**
 *****  WEATHER ACROSS EASTERN NORTH DAKOTA  *****

CITY           SKY/WX    TMP DP  RH WIND       PRES   REMARKS
GRAND FORKS    CLOUDY    37  33  85 S16G25    30.14F
6HR MIN TEMP:  30; 6HR MAX TEMP:  40;

GRAND FORKS AF CLOUDY    36  32  85 S18       30.13F
GRAND CITY NWS NOT AVBL
BUXTON         NOT AVBL
DEVILS LAKE    CLOUDY    35  31  85 S18G24    30.07F WCI  24
6HR MIN TEMP:  27; 6HR MAX TEMP:  35;

FARGO          CLOUDY    36  32  85 S12       30.15F
6HR MIN TEMP:  29; 6HR MAX TEMP:  36;

WAHPETON ARPT  CLOUDY    34  30  86 SE13      30.16F WCI  25
$$

 *****  WEATHER ACROSS CENTRAL AND WESTERN NORTH DAKOTA  *****

CITY           SKY/WX    TMP DP  RH WIND       PRES   REMARKS
JAMESTOWN      CLOUDY    37  32  82 S17G24    30.07F
6HR MIN TEMP:  27; 6HR MAX TEMP:  37;

BISMARCK       CLOUDY    39  33  79 SE14      30.03F
6HR MIN TEMP:  31; 6HR MAX TEMP:  39;

MINOT          CLOUDY    39  32  76 S13       29.93R
6HR MIN TEMP:  30; 6HR MAX TEMP:  39;

MINOT AFB      FAIR      38  33  83 S13       29.91F
6HR MIN TEMP:  30; 6HR MAX TEMP:  38; 6HR PCP: TRACE;

GARRISON         N/A     37  32  82 S12       29.95S
6HR MIN TEMP:  30; 6HR MAX TEMP:  37;

WILLISTON      PTSUNNY   57  33  40 W12       29.89R
6HR MIN TEMP:  42; 6HR MAX TEMP:  58;

DICKINSON      FAIR      52  33  48 SW13      29.91R
6HR MIN TEMP:  32; 6HR MAX TEMP:  52;

HETTINGER      FAIR      50  33  52 S12       29.94F
6HR MIN TEMP:  33; 6HR MAX TEMP:  50;

$$

 *****  OTHER OBSERVATIONS NORTHEAST NORTH DAKOTA  *****

CITY           SKY/WX    TMP DP  RH WIND       PRES   REMARKS
WALHALLA       NOT AVBL
LANGDON        CLOUDY    36  34  93 S21G29    30.05F
CAVALIER         N/A     37  32  81 S18G24    30.11S
GRAFTON        CLOUDY    37  34  87 S22       30.15S
CANDO          NOT AVBL
FORT TOTTEN      N/A     33  33 100 S15       29.95S WCI  23
ROLLA          CLOUDY    32  32 100 S20       29.99S WCI  20
RUGBY            N/A     34  34 100 S17G24    29.98S WCI  23
 ***** THE ABOVE OBSERVATIONS ARE NON NWS ARE NOT QUALITY
        CONTROLLED AND MAY MIS-REPORT RAIN FOR SNOW...
$$

 *****  OTHER OBSERVATIONS SOUTHEAST NORTH DAKOTA *****

CITY           SKY/WX    TMP DP  RH WIND       PRES   REMARKS
COOPERSTOWN    CLOUDY    34  32  93 S18G24    30.11S WCI  23
VALLEY CITY    CLOUDY    34  34 100 SE15G21   30.12S WCI  24
OAKES          NOT AVBL
GWINNER        CLOUDY    37  32  81 MISG      30.12F
SHEYENNE NWR     N/A     36  31  83 S12       29.95S
BUFFALO        NOT AVBL
WYNDMERE       NOT AVBL
 ***** THE ABOVE OBSERVATIONS ARE NON NWS ARE NOT QUALITY
       CONTROLLED AND MAY MIS-REPORT RAIN FOR SNOW...
$$

  *****  WEATHER ACROSS NORTHERN MINNESOTA  *****

CITY           SKY/WX    TMP DP  RH WIND       PRES   REMARKS
FLAG ISLAND    CLOUDY    34  30  86 S16       30.18F WCI  23
WARROAD        FAIR      39  30  70 SE17      30.17F
ROSEAU         FAIR      39  30  70 S14       30.15F
HALLOCK        CLOUDY    37  34  87 S16       30.14S
THF RVR FALLS  CLOUDY   N/A N/A N/A SE12      30.16
HALSTAD          N/A     37  32  82 S14         N/A
FOSSTON        FAIR      41  34  75 SE9       30.15F
BAUDETTE       FAIR      40  28  62 SE15      30.17F
6HR MIN TEMP:  27; 6HR MAX TEMP:  40;

WASKISH        FAIR      41  28  60 SE10G16   30.19F
CROOKSTON      CLOUDY    37  34  87 S15       30.15F
$$
  *****  WEATHER ACROSS CENTRAL AND WEST MINNESOTA  *****

CITY           SKY/WX    TMP DP  RH WIND       PRES   REMARKS
BEMIDJI        FAIR      39  29  67 SE15      30.16F
PARK RAPIDS    FAIR      40  26  57 SE13      30.15F
6HR MIN TEMP:  34; 6HR MAX TEMP:  40;

WADENA         FAIR      39  28  65 E12       30.15S
DETROIT LAKES  FAIR      41  32  70 SE15G21   30.14F
MOORHEAD       CLOUDY    36  30  80 S9        30.16F
FERGUS FALLS   CLOUDY    36  28  75 SE9       30.19F
ELBOW LAKE     CLOUDY    35  30  83 SE10G16   30.16F
6HR MIN TEMP:  32; 6HR MAX TEMP:  35;

MORRIS MN      PTSUNNY   37  30  75 SE14      30.13F
STAPLES        PTSUNNY   41  27  56 SE13G18   30.16F
WHEATON        CLOUDY    36  30  80 SE12      30.17F
$$
  *****  WEATHER ELSEWHERE ACROSS MINNESOTA  *****

CITY           SKY/WX    TMP DP  RH WIND       PRES   REMARKS
DULUTH         CLOUDY    34  30  85 E17G25    30.23F WCI  23
6HR MIN TEMP:  32; 6HR MAX TEMP:  34;

INTRNTL FALLS  CLOUDY    37  27  67 SE13G20   30.23F
6HR MIN TEMP:  33; 6HR MAX TEMP:  37;

ELY            CLOUDY    34  25  69 SE10      30.26F
CLOQUET        CLOUDY    36  28  75 E9G21     30.22F
BRAINERD       CLOUDY    38  28  67 E9        30.19F
6HR MIN TEMP:  32; 6HR MAX TEMP:  38;

HIBBING        CLOUDY    34  27  75 E13       30.23F WCI  25
6HR MIN TEMP:  30; 6HR MAX TEMP:  34; 6HR PCP: TRACE;

ALEXANDRIA     CLOUDY    37  30  75 E13       30.15F
6HR MIN TEMP:  32; 6HR MAX TEMP:  37;

SAINT CLOUD    CLOUDY    37  31  78 NE8       30.16F
6HR MIN TEMP:  34; 6HR MAX TEMP:  37;

MINNEAPOLIS    CLOUDY    41  31  67 E13       30.16S
6HR MIN TEMP:  37; 6HR MAX TEMP:  42;

$$

  *****  WEATHER ACROSS SOUTH DAKOTA  *****

CITY           SKY/WX    TMP DP  RH WIND       PRES   REMARKS
SIOUX FALLS    CLOUDY    41  37  86 E13       30.07F
6HR MIN TEMP:  35; 6HR MAX TEMP:  42;

BROOKINGS      CLOUDY    37  33  85 E12       30.07F
WATERTOWN      CLOUDY    36  32  85 E10       30.08F
6HR MIN TEMP:  31; 6HR MAX TEMP:  36;

HURON          CLOUDY    39  32  76 E8        30.08F
6HR MIN TEMP:  33; 6HR MAX TEMP:  39;

SISSETON         N/A     36  32  85 SE13      30.13F
ABERDEEN       CLOUDY    38  30  73 SE12      30.10F
6HR MIN TEMP:  31; 6HR MAX TEMP:  38;

MITCHELL       CLOUDY    38  34  85 E7        30.09F
PIERRE         FAIR      41  33  73 S10       30.02F
6HR MIN TEMP:  31; 6HR MAX TEMP:  41;

MOBRIDGE       CLOUDY    41  32  70 S14       30.02F
RAPID CITY     FAIR      61  33  35 SE10      29.90F
6HR MIN TEMP:  35; 6HR MAX TEMP:  61;

$$

  *****  SOME WEATHER IN NEARBY STATES *****

CITY           SKY/WX    TMP DP  RH WIND       PRES   REMARKS
GLASGOW MT     FAIR      56  26  31 NW22G30   29.90S
6HR MIN TEMP:  40; 6HR MAX TEMP:  56;

GREAT FALLS MT FAIR      51  21  30 SW20G25   29.95F
6HR MIN TEMP:  40; 6HR MAX TEMP:  52;

CHEYENNE WY    FAIR      54  26  34 SW13      30.00F
6HR MIN TEMP:  32; 6HR MAX TEMP:  55;

SCOTTSBLUFF NE FAIR      61  34  36 S8        29.95F
6HR MIN TEMP:  30; 6HR MAX TEMP:  62;

OMAHA NE       CLOUDY    43  38  82 N14       29.96F
6HR MIN TEMP:  40; 6HR MAX TEMP:  43; 6HR PCP:  0.25;

DES MOINES IA  LGT RAIN  41  39  93 NE14      29.95S FOG
6HR MIN TEMP:  40; 6HR MAX TEMP:  42; 6HR PCP:  0.58;

DAVENPORT IA   CLOUDY    44  42  93 E15       29.93S
6HR MIN TEMP:  41; 6HR MAX TEMP:  44; 6HR PCP:  0.33;

CHICAGO IL     CLOUDY    43  40  89 NE14      30.03F
6HR MIN TEMP:  41; 6HR MAX TEMP:  43; 6HR PCP:  0.34;

EAU CLAIRE WI  CLOUDY    39  32  76 E18G26    30.16F
6HR MIN TEMP:  35; 6HR MAX TEMP:  39;

LA CROSSE WI   CLOUDY    41  35  79 E9G18     30.11F
6HR MIN TEMP:  38; 6HR MAX TEMP:  41;

$$

  *****  SOME NATIONAL WEATHER *****

CITY           SKY/WX    TMP DP  RH WIND       PRES   REMARKS
LA GUARDIA NY  PTSUNNY   55  40  56 NE10      30.19R
6HR MIN TEMP:  51; 6HR MAX TEMP:  57;


USA.gov is the U.S. government's official web portal to all federal, state and local government web resources and services.